This demonstration page uses our WeatherBlox Daily Observations layout. Learn more.

Left ArrowRight Arrow

38.20091, -84.87328

Hourly Observations for February 23, 2018

Temp ( °F °C ) Dew Point ( °F °C ) Humidity (%) Winds ( mph kmh ) Pressure ( in mb ) Visibility ( mi km ) Precip ( " mm )
12:53 am 00:53 Cloudy with Mist and Fog 50 10 47 8.3 89 89 Calm 30.32 1027 5 8 0.00 0.00
1:12 am 01:12 Cloudy with Mist and Fog 50 10 47 8.3 89 89 Calm 30.33 1027 3 4 0.00 0.00
1:23 am 01:23 Cloudy with Light Rain 50 10 47 8.3 89 89 Calm 30.33 1027 1 2 0.05 1.27
1:37 am 01:37 Cloudy with Light Rain 50 10 47 8.3 89 89 Calm 30.33 1027 3 5 0.07 1.78
1:49 am 01:49 Cloudy with Mist and Fog 50 10 46 8 88 88 ENE 3 6 30.33 1027 2 3 0.07 1.78
1:53 am 01:53 Cloudy with Mist and Fog 50 10 47 8.3 89 89 ENE 3 6 30.30 1026 2 2 0.07 1.78
2:02 am 02:02 Cloudy with Mist and Fog 51 10.6 48 8.9 89 89 NE 3 6 30.33 1027 3 5 0.00 0.00
2:53 am 02:53 Cloudy with Mist and Fog 51 10.6 48 8.9 89 89 NE 3 6 30.28 1026 3 5 0.00 0.00
3:13 am 03:13 Cloudy with Mist and Fog 51 10.6 48 8.9 89 89 E 5 7 30.30 1026 2 3 0.00 0.00
3:27 am 03:27 Cloudy with Mist and Fog 51 10.6 48 8.9 89 89 ENE 3 6 30.30 1026 2 2 0.00 0.00
3:42 am 03:42 Mostly Cloudy with Mist and Fog 51 10.6 48 8.9 89 89 NE 3 6 30.30 1026 1 1 0.00 0.00
3:53 am 03:53 Mostly Cloudy with Mist and Fog 51 10.6 49 9.4 92 92 NE 3 6 30.26 1025 1 2 0.00 0.00
4:04 am 04:04 Cloudy with Mist and Fog 51 10.6 49 9.4 92 92 ENE 5 7 30.27 1025 1 2 0.00 0.00
4:17 am 04:17 Mostly Cloudy with Mist and Fog 51 10.6 49 9.4 92 92 E 3 6 30.27 1025 1 1 0.00 0.00
4:53 am 04:53 Mostly Cloudy with Mist and Fog 52 11.1 50 10 93 93 E 5 7 30.23 1024 1 2 0.00 0.00
5:02 am 05:02 Mostly Cloudy with Fog 52 11.1 49 9.4 89 89 E 5 7 30.27 1025 1 1 0.00 0.00
5:29 am 05:29 Mostly Cloudy with Mist and Fog 52 11.1 49 9.4 89 89 N 5 7 30.27 1025 1 2 0.00 0.00
5:41 am 05:41 Cloudy with Light Rain 52 11.1 50 10 93 93 NE 3 6 30.24 1024 2 3 0.00 0.03
5:48 am 05:48 Cloudy with Mist and Fog 52 11 50 10 94 94 N 3 6 30.27 1025 3 5 0.00 0.03
5:53 am 05:53 Cloudy with Mist and Fog 52 11.1 49 9.4 89 89 NNW 7 11 30.23 1024 4 6 0.00 0.03
6:06 am 06:06 Cloudy with Heavy Rain 52 11.1 49 9.4 89 89 NW 7 11 30.27 1025 2 3 0.11 2.79
6:13 am 06:13 Cloudy with Heavy Rain 52 11.1 50 10 93 93 NNW 7 11 30.27 1025 1 2 0.19 4.83
6:20 am 06:20 Cloudy with Rain 52 11.1 50 10 93 93 WNW 3 6 30.30 1026 2 3 0.21 5.33
6:32 am 06:32 Cloudy with Rain 52 11.1 50 10 93 93 Calm 30.30 1026 3 4 0.26 6.60
6:38 am 06:38 Cloudy with Light Rain 52 11.1 50 10 93 93 Calm 30.27 1025 3 5 0.27 6.86
6:46 am 06:46 Cloudy with Light Rain 52 11.1 49 9.4 89 89 Calm 30.27 1025 6 10 0.28 7.11
6:53 am 06:53 Cloudy with Light Rain 52 11.1 49 9.4 89 89 ESE 3 6 30.25 1024 8 13 0.29 7.37
7:53 am 07:53 Cloudy with Light Rain 59 15 56 13.3 90 90 S 12 19 30.23 1024 10 16 0.05 1.27
8:53 am 08:53 Cloudy 62 16.7 58 14.4 86 86 SSW 13 20 30.24 1024 10 16 0.02 0.51
9:53 am 09:53 Cloudy with Light Rain 63 17.2 59 15 87 87 SW 14 22 30.27 1025 10 16 0.02 0.51
10:53 am 10:53 Cloudy with Heavy Rain 63 17.2 59 15 87 87 SW 14 22 30.28 1025 2 3 0.14 3.56
11:13 am 11:13 Cloudy with Rain 63 17.2 59 15 87 87 SSW 14 22 30.27 1025 5 8 0.06 1.52
11:36 am 11:36 Cloudy with Rain 63 17.2 59 15 87 87 SSW 13 20 30.30 1026 3 4 0.15 3.81
11:45 am 11:45 Cloudy with Light Rain 63 17.2 59 15 87 87 SSW 14 22 30.30 1026 9 14 0.15 3.81
11:53 am 11:53 Cloudy with Light Rain 63 17.2 59 15 87 87 SSW 12 19 30.28 1026 10 16 0.15 3.81
12:06 pm 12:06 Cloudy with Light Rain 63 17.2 60 15.6 90 90 SSW 14 22 30.27 1025 9 14 0.02 0.51
12:35 pm 12:35 Cloudy with Light Rain 64 17.8 60 15.6 87 87 SW 14 22 30.30 1026 7 11 0.06 1.52
12:43 pm 12:43 Cloudy with Rain 64 17.8 60 15.6 87 87 SW 13 20 30.27 1025 3 4 0.08 2.03
12:53 pm 12:53 Cloudy with Light Rain 64 17.8 60 15.6 87 87 SW 12 19 30.27 1025 9 14 0.08 2.03
1:53 pm 13:53 Mostly Cloudy 67 19.4 62 16.7 84 84 SSW 14 22 30.22 1023 10 16 0.01 0.25
2:17 pm 14:17 Partly Cloudy 68 20 61 16.1 78 78 SW 17 28 30.21 1023 10 16 0.00 0.00
2:53 pm 14:53 Partly Cloudy 69 20.6 61 16.1 76 76 SW 12 19 30.19 1023 10 16 0.00 0.00
3:21 pm 15:21 Mostly Cloudy 69 20.6 60 15.6 73 73 W 10 17 30.21 1023 10 16 0.00 0.00
3:32 pm 15:32 Mostly Cloudy 69 20.6 60 15.6 73 73 W 9 15 30.21 1023 10 16 0.00 0.00
3:53 pm 15:53 Mostly Cloudy 69 20.6 59 15 70 70 WSW 8 13 30.20 1023 10 16 0.00 0.00
4:53 pm 16:53 Mostly Cloudy 69 20.6 59 15 70 70 WSW 3 6 30.20 1023 10 16 0.00 0.00
5:53 pm 17:53 Mostly Cloudy 67 19.4 58 14.4 73 73 W 3 6 30.20 1023 10 16 0.00 0.00
6:53 pm 18:53 Clear 64 17.8 58 14.4 81 81 WNW 5 7 30.20 1023 10 16 0.00 0.00
7:42 pm 19:42 Mostly Clear 62 16.7 58 14.4 86 86 NNW 5 7 30.21 1023 10 16 0.00 0.00
7:53 pm 19:53 Partly Cloudy 61 16.1 57 13.9 87 87 NNW 6 9 30.19 1023 10 16 0.00 0.00
8:01 pm 20:01 Mostly Cloudy 61 16.1 57 13.9 87 87 NNW 9 15 30.21 1023 10 16 0.00 0.00
8:53 pm 20:53 Cloudy 61 16.1 57 13.9 87 87 Calm 30.20 1023 10 16 0.00 0.00
9:53 pm 21:53 Cloudy with Rain 60 15.6 56 13.3 86 86 NW 5 7 30.19 1023 3 4 0.04 1.02
9:57 pm 21:57 Cloudy with Heavy Rain 60 15.6 56 13.3 86 86 Calm 30.21 1023 2 2 0.06 1.52
10:06 pm 22:06 Cloudy with Light Rain 60 15.6 56 13.3 86 86 NE 3 6 30.18 1022 3 5 0.06 1.52
10:53 pm 22:53 Cloudy with Light Rain 59 15 56 13.3 90 90 Calm 30.17 1022 7 11 0.07 1.78
11:13 pm 23:13 Cloudy with Nearby Thunderstorms 58 14.4 56 13.3 93 93 WSW 5 7 30.18 1022 6 10 0.01 0.25
11:21 pm 23:21 Cloudy with Thunderstorms 59 15 56 13.3 90 90 W 3 6 30.18 1022 5 8 0.02 0.51
11:27 pm 23:27 Cloudy with Thunderstorms 59 15 56 13.3 90 90 SW 3 6 30.18 1022 3 4 0.05 1.27
11:34 pm 23:34 Cloudy with Rain 59 15 56 13.3 90 90 NW 3 6 30.18 1022 3 5 0.07 1.78
11:53 pm 23:53 Cloudy with Light Rain 58 14.4 55 12.8 90 90 NNE 5 7 30.16 1021 8 13 0.09 2.29

Powered by AerisWeather